Regional Weather Roundup
Issued by NWS

Home | Current Version | Previous Version | Graphics & Text | Print | Product List | Glossary On
Versions: 1 2 3 4 5 6 7 8 9 10 11 12 13 14 15 16 17 18 19 20 21 22 23 24 25 26 27 28 29 30 31 32 33 34 35 36 37 38 39 40 41 42 43 44 45 46 47 48 49 50
000
ASUS43 KMKX 241921
RWRWI

WISCONSIN REGIONAL WEATHER ROUNDUP
NATIONAL WEATHER SERVICE MILWAUKEE/SULLIVAN WI
100 PM CST FRI NOV 24 2017

NOTE: "FAIR" INDICATES FEW OR NO CLOUDS BELOW 12,000 FEET WITH NO
SIGNIFICANT WEATHER AND/OR OBSTRUCTIONS TO VISIBILITY.

WIZ001-002-006>008-014>016-023>028-242000-
NORTHWEST WISCONSIN

CITY           SKY/WX    TMP DP  RH WIND       PRES   REMARKS
SUPERIOR ARPT  DRIZZLE   42  41  95 W9        29.31R
ASHLAND        LGT RAIN  47  41  80 SW7       29.28R
HAYWARD        RAIN      51  39  63 SW7       29.32R
SIREN          LGT RAIN  49  41  74 SW6       29.36R
CUMBERLAND     CLOUDY    52  36  54 W16G22    29.36R
RICE LAKE      CLOUDY    54  39  55 W10G16    29.37R
CHETEK         CLOUDY    56  40  54 NW10G16   29.35R
LADYSMITH      CLOUDY    57  39  52 W10       29.34R
EAU CLAIRE     SUNNY     58  38  47 W10       29.32S
MENOMONIE      CLOUDY    59  38  45 W12       29.34R
NEW RICHMOND   CLOUDY    56  37  49 W7        29.37R
OSCEOLA        LGT RAIN  56  42  60 NW7       29.39S
$$

WIZ003>005-009-010-017-018-242000-
NORTH CENTRAL WISCONSIN

CITY           SKY/WX    TMP DP  RH WIND       PRES   REMARKS
MANITOWISH WTR MOSUNNY   51  38  60 SW8       29.26F
ARBOR VITAE    CLOUDY    52  39  60 W8G16     29.28F
WOODRUFF       CLOUDY    52  39  60 W8G16     29.28F
RHINELANDER    CLOUDY    55  39  54 W17G24    29.30R
EAGLE RIVER    CLOUDY    53  36  52 W12       29.27F
LAND O LAKES   MOSUNNY   53  37  53 SW10G18   29.27F
PHILLIPS       MOSUNNY   52  38  59 W9        29.31R
TOMAHAWK       MOSUNNY   52  37  56 SW3       29.31R
MEDFORD        MOSUNNY   54  38  53 W9        29.30S
MERRILL        MOSUNNY   56  38  52 W10       29.30R
$$

WIZ029-030-035-036-043>047-242000-
CENTRAL WISCONSIN

CITY           SKY/WX    TMP DP  RH WIND       PRES   REMARKS
WAUSAU         MOSUNNY   57  37  47 SW7       29.27F
MOSINEE        MOSUNNY   59  37  44 SW7       29.29F
MARSHFIELD     SUNNY     60  37  42 W13       29.28F
STEVENS POINT  SUNNY     59  37  43 S12       29.27F
WAUPACA        SUNNY     65  36  33 S14       29.30F
WAUTOMA        SUNNY     64  38  38 S14G21    29.31F
WISC RAPIDS    SUNNY     61  38  42 SW16G22   29.30F
CAMP DOUGLAS   SUNNY     63  39  40 SW12G20   29.31F
$$

WIZ011>013-019>022-031-037>040-048>050-242000-
NORTHEAST WISCONSIN

CITY           SKY/WX    TMP DP  RH WIND       PRES   REMARKS
ANTIGO         CLOUDY    53  37  55 S10       29.26F
SHAWANO        MOSUNNY   60  37  41 SW6       29.27F
OCONTO         MOSUNNY   56  37  47 SW10G17   29.28F
STURGEON BAY   MOSUNNY   52  39  61 S15       29.30F
GREEN BAY      MOSUNNY   58  40  51 SW17      29.31F
MANITOWOC      SUNNY     56  40  55 S12       29.36F
APPLETON       PTSUNNY   61  32  33 S22       29.32F
CLINTONVILLE   CLOUDY    63  36  36 SW15G21   29.28F
OSHKOSH        SUNNY     61  38  42 SW22G31   29.34F
$$

WIZ032>034-041-042-053>061-242000-
SOUTHWEST WISCONSIN

CITY           SKY/WX    TMP DP  RH WIND       PRES   REMARKS
LA CROSSE      SUNNY     64  40  41 S18G25    29.32F
SPARTA         SUNNY     62  39  42 SW6G17    29.34S
VIROQUA        SUNNY     61  41  47 SW22G28   29.36S
BOSCOBEL       SUNNY     66  38  35 SW14G22   29.37F
PRAIRIE DU CHI SUNNY     65  36  33 SW9G18    29.36F
PLATTEVILLE    SUNNY     65  40  40 SW20      29.40F
$$

WIZ056-057-062-063-064-067-068-242000-
SOUTH CENTRAL WISCONSIN

CITY           SKY/WX    TMP DP  RH WIND       PRES   REMARKS
REEDSBURG      SUNNY     62  39  42 SW13G20   29.35F
BARABOO/DELLS  SUNNY     62  35  36 S15G25    29.35F
LONE ROCK      SUNNY     65  39  38 SW14G22   29.37F
MINERAL POINT  SUNNY     64  37  36 S18G25    29.38F
MADISON        MOSUNNY   61  37  41 S13G24    29.39F
MIDDLETON      SUNNY     65  35  33 SW17G23   29.39F
WATERTOWN      SUNNY     63  38  39 S18G28    29.39F
MONROE         SUNNY     61  36  39 S22G31    29.41F
JANESVILLE     SUNNY     66  34  30 SW24G31   29.43F
$$

WIZ051-052-058>065-066-070>072-242000-
SOUTHEAST WISCONSIN

CITY           SKY/WX    TMP DP  RH WIND       PRES   REMARKS
MILWAUKEE      MOSUNNY   64  37  36 SW26G39   29.45F
WAUKESHA       SUNNY     61  36  39 S14G24    29.44F
MILWAUKEE/TIMM SUNNY     63  32  31 S16G26    29.44F
RACINE         SUNNY     63  38  39 SW23G35   29.49F
BURLINGTON     SUNNY     65  43  45 S23G33    29.46F
KENOSHA        SUNNY     62  37  39 SW22G38   29.48F
FOND DU LAC    SUNNY     62  36  37 S18G30    29.36F
SHEBOYGAN      SUNNY     67  39  35 SW23G30   29.37F
WEST BEND      SUNNY     63  34  34 SW17G31   29.39F
JUNEAU         SUNNY     61  38  42 S17G26    29.40F
$$

LSZ147-162-242000-
LAKE SUPERIOR

STATION/POSITION TIME  TEMP    WIND        PRES    WAVE
                       AIR SEA DIR/SP/G            HT/PER
                 (UTC) (F)     (DEG/KT/KT) (MB)    (FT/S)
DEVILS ISLAND    1900   43     240/ 19/ 22  991.1R
SAXON HARBOR     1840   49     200/  9/ 11  990.5F
$$

LMZ867-665-643>646-242000-
LAKE MICHIGAN

STATION/POSITION TIME  TEMP    WIND        PRES    WAVE
                       AIR SEA DIR/SP/G            HT/PER
                 (UTC) (F)     (DEG/KT/KT) (MB)    (FT/S)
N MID LAKE BUOY  1850   48 47  190/ 29/ 35  992.1F  11/ 8
NORTHPORT PIER   1901   47     170/  7/ 21  991.9
KEWAUNEE LAKESHO 1854   43     180/ 15/ 18  993.0F
SHEBOYGAN LAKESH 1900   46     170/ 26/ 28  994.7F
PORT WASHINGTON  1901   65     200/ 12      996.6
MILWAUKEE LAKESH 1900   60     210/ 20/ 26   N/A
S MID LAKE BUOY  1850   48 47  190/ 23/ 29 1000.1F   6/ 6
KENOSHA   LAKESH 1900   62     210/ 21/ 30  998.3
$$

TC  - TEMPERATURE IN CELSIUS
VSB - VISIBILITY IN STATUTE MILES
WCI - WIND CHILL INDEX
HX  - HEAT INDEX





USA.gov is the U.S. government's official web portal to all federal, state and local government web resources and services.